GW7323 Weather Reports


time (UTC)temp
C
wind
direction
speed
KPH
gust
KPH
rain 1hr
cm
rain 24hr
cm
rain mn
cm
humidity
%
barometer
mb
20260906103512 20 139 3.2 8.0 0.00 0.00 0.00 90 1016.4
20260906103024 20 133 1.6 8.0 0.00 0.00 0.00 89 1016.4
20260906102515 20 125 3.2 9.7 0.00 0.00 0.00 89 1016.3
20260906102016 20 150 0.0 9.7 0.00 0.00 0.00 89 1016.3
20260906101525 20 94 1.6 6.4 0.00 0.00 0.00 89 1016.2
20260906101014 20 154 1.6 4.8 0.00 0.00 0.00 89 1016.2
20260906100518 20 126 0.0 9.7 0.00 0.00 0.00 89 1016.3
20260906100024 20 130 4.8 9.7 0.00 0.00 0.00 89 1016.2
20260906095505 20 134 1.6 6.4 0.00 0.00 0.00 89 1016.3
20260906095008 20 126 1.6 6.4 0.00 0.00 0.00 89 1016.2
20260906094526 20 117 3.2 6.4 0.00 0.00 0.00 89 1016.2
20260906094012 20 143 1.6 8.0 0.00 0.00 0.00 88 1016.2
20260906093508 20 124 3.2 8.0 0.00 0.00 0.00 88 1016.2
20260906093019 20 144 3.2 8.0 0.00 0.00 0.00 88 1016.2
20260906092515 20 130 3.2 9.7 0.00 0.00 0.00 88 1016.2
20260906092019 20 120 4.8 9.7 0.00 0.00 0.00 88 1016.1
20260906091527 20 152 4.8 11.3 0.00 0.00 0.00 87 1016.1
20260906091016 20 143 6.4 11.3 0.00 0.00 0.00 88 1016.1
20260906090520 20 169 4.8 11.3 0.00 0.00 0.00 88 1016.0
20260906090027 20 149 6.4 11.3 0.00 0.00 0.00 88 1016.0
20260906085514 21 128 8.0 11.3 0.00 0.00 0.00 87 1016.0
20260906085007 21 143 4.8 11.3 0.00 0.00 0.00 87 1016.1
20260906084508 21 136 4.8 9.7 0.00 0.00 0.00 87 1016.0
20260906084013 21 169 6.4 9.7 0.00 0.00 0.00 88 1016.1
20260906083507 21 151 4.8 11.3 0.00 0.00 0.00 88 1016.0
20260906083015 21 153 4.8 11.3 0.00 0.00 0.00 87 1015.9
20260906082512 21 117 4.8 9.7 0.00 0.00 0.00 87 1015.9
20260906082012 21 138 4.8 9.7 0.00 0.00 0.00 88 1015.9
20260906081540 21 116 6.4 9.7 0.00 0.00 0.00 87 1015.9
20260906081013 21 162 4.8 9.7 0.00 0.00 0.00 87 1015.9
20260906080519 21 127 4.8 11.3 0.00 0.00 0.00 87 1016.0
20260906080025 21 167 4.8 11.3 0.00 0.00 0.00 87 1015.9
20260906075514 21 148 3.2 12.9 0.00 0.00 0.00 87 1015.8
20260906075015 21 133 8.0 12.9 0.00 0.00 0.00 87 1015.7
20260906074527 21 129 6.4 9.7 0.00 0.00 0.00 86 1015.7
20260906074006 21 138 6.4 9.7 0.00 0.00 0.00 86 1015.7
20260906073509 21 161 4.8 19.3 0.00 0.00 0.00 86 1015.7
20260906073016 21 124 4.8 19.3 0.00 0.00 0.00 86 1015.7
20260906072511 21 144 9.7 19.3 0.00 0.00 0.00 86 1015.7
20260906072007 21 123 4.8 16.1 0.00 0.00 0.00 87 1015.6
20260906071520 21 129 4.8 16.1 0.00 0.00 0.00 87 1015.6
20260906071014 21 115 4.8 14.5 0.00 0.00 0.00 88 1015.6
20260906070519 21 121 8.0 14.5 0.00 0.00 0.00 88 1015.6
20260906070025 22 142 8.0 11.3 0.00 0.00 0.00 87 1015.7
20260906065516 22 146 8.0 14.5 0.00 0.00 0.00 87 1015.7
20260906065013 22 159 6.4 16.1 0.00 0.00 0.00 87 1015.7
20260906064526 22 159 6.4 16.1 0.00 0.00 0.00 88 1015.7
20260906064014 22 117 3.2 9.7 0.00 0.00 0.00 88 1015.6
20260906063514 22 150 6.4 9.7 0.00 0.00 0.00 87 1015.6
20260906063008 22 155 6.4 9.7 0.00 0.00 0.00 87 1015.6
20260906062513 22 124 3.2 11.3 0.00 0.00 0.00 87 1015.6
20260906062009 22 144 4.8 11.3 0.00 0.00 0.00 87 1015.6
20260906061519 22 135 4.8 9.7 0.00 0.00 0.00 87 1015.6
20260906061010 22 116 6.4 9.7 0.00 0.00 0.00 87 1015.5
20260906060513 22 117 4.8 9.7 0.00 0.00 0.00 87 1015.5
20260906060023 22 129 1.6 9.7 0.00 0.00 0.00 88 1015.5
20260906055515 22 140 6.4 9.7 0.00 0.00 0.00 87 1015.4
20260906055016 22 128 3.2 9.7 0.00 0.00 0.00 88 1015.4
20260906054525 22 181 4.8 9.7 0.00 0.00 0.00 88 1015.3
20260906054014 22 143 6.4 11.3 0.00 0.00 0.00 88 1015.3
20260906053515 22 164 3.2 11.3 0.00 0.00 0.00 88 1015.3
20260906053026 22 129 3.2 11.3 0.00 0.00 0.00 89 1015.3
20260906052507 22 165 6.4 11.3 0.00 0.00 0.00 89 1015.2
20260906052006 22 160 8.0 11.3 0.00 0.00 0.00 89 1015.2
20260906051507 22 124 3.2 6.4 0.00 0.00 0.00 89 1015.3
20260906051010 22 107 1.6 6.4 0.00 0.00 0.00 89 1015.3
20260906050509 22 127 3.2 8.0 0.00 0.00 0.00 88 1015.2
20260906050019 22 129 4.8 8.0 0.00 0.00 0.00 88 1015.2
20260906045515 22 124 1.6 8.0 0.00 0.00 0.00 88 1015.1
20260906045011 22 116 3.2 8.0 0.00 0.00 0.00 88 1015.1
20260906044533 22 127 4.8 8.0 0.00 0.00 0.00 87 1015.0
20260906044012 22 131 3.2 8.0 0.00 0.00 0.00 88 1015.0
20260906043514 22 154 4.8 9.7 0.00 0.00 0.00 87 1014.9
20260906043025 23 131 4.8 9.7 0.00 0.00 0.00 87 1015.0
20260906042516 22 155 3.2 8.0 0.00 0.00 0.00 87 1014.9
20260906042016 22 120 4.8 12.9 0.00 0.00 0.00 87 1015.0
20260906041509 22 138 6.4 14.5 0.00 0.00 0.00 87 1014.9
20260906041006 22 141 6.4 14.5 0.00 0.00 0.00 87 1014.9
20260906040508 22 133 6.4 12.9 0.00 0.00 0.00 87 1015.0
20260906040014 23 122 8.0 12.9 0.00 0.00 0.00 86 1015.0
20260906035511 23 112 4.8 9.7 0.00 0.00 0.00 86 1014.9
20260906035010 22 128 3.2 12.9 0.00 0.00 0.00 87 1015.0
20260906034518 22 120 8.0 16.1 0.00 0.00 0.00 86 1015.0
20260906034012 23 134 11.3 16.1 0.00 0.00 0.00 86 1015.2
20260906033513 23 174 8.0 14.5 0.00 0.00 0.00 85 1015.1
20260906033027 23 141 3.2 16.1 0.00 0.00 0.00 86 1015.2
20260906032515 23 123 8.0 16.1 0.00 0.00 0.00 86 1015.0
20260906032016 23 139 9.7 14.5 0.00 0.00 0.00 86 1015.0
20260906031541 23 147 8.0 12.9 0.00 0.00 0.00 85 1014.9
20260906031014 23 134 6.4 17.7 0.00 0.00 0.00 85 1014.9
20260906030509 23 155 8.0 17.7 0.00 0.00 0.00 85 1014.9
20260906030012 23 133 9.7 17.7 0.00 0.00 0.00 85 1014.9
20260906025508 23 129 9.7 16.1 0.00 0.00 0.00 85 1014.8
20260906025006 23 160 6.4 14.5 0.00 0.00 0.00 85 1014.7
20260906024514 23 141 8.0 12.9 0.00 0.00 0.00 84 1014.8
20260906024012 23 101 4.8 14.5 0.00 0.00 0.00 84 1014.8
20260906023511 23 151 1.6 17.7 0.00 0.00 0.00 84 1014.6
20260906023024 23 84 6.4 17.7 0.00 0.00 0.00 84 1014.5
20260906022514 23 114 8.0 17.7 0.00 0.00 0.00 84 1014.3
20260906022014 23 106 9.7 17.7 0.00 0.00 0.00 83 1014.4
20260906021526 23 128 11.3 19.3 0.00 0.00 0.00 83 1014.3
20260906021015 23 71 12.9 19.3 0.00 0.00 0.00 83 1014.3
20260906020516 23 98 6.4 19.3 0.00 0.00 0.00 83 1014.2
20260906020004 23 139 11.3 19.3 0.00 0.00 0.00 83 1014.1
20260906015509 24 88 9.7 24.1 0.00 0.00 0.00 82 1014.1
20260906015006 24 86 12.9 24.1 0.00 0.00 0.00 81 1014.1
20260906014509 24 118 6.4 19.3 0.00 0.00 0.00 82 1014.1
20260906014015 24 128 6.4 25.7 0.00 0.00 0.00 82 1014.1
20260906013508 24 89 11.3 27.4 0.00 0.00 0.00 81 1013.9
20260906013028 24 79 16.1 27.4 0.00 0.00 0.00 81 1013.8
20260906012510 25 132 9.7 24.1 0.00 0.00 0.00 80 1013.8
20260906012013 25 112 11.3 24.1 0.00 0.00 0.00 80 1013.8
20260906011523 25 65 11.3 27.4 0.00 0.00 0.00 79 1013.7
20260906011019 25 119 12.9 27.4 0.00 0.00 0.00 79 1013.6
20260906010515 25 44 11.3 25.7 0.00 0.00 0.00 79 1013.5
20260906010026 25 119 12.9 25.7 0.00 0.00 0.00 79 1013.4
20260906005514 26 91 11.3 16.1 0.00 0.00 0.00 78 1013.3
20260906005003 26 103 9.7 22.5 0.00 0.00 0.00 78 1013.1
20260906004510 26 130 12.9 22.5 0.00 0.00 0.00 78 1013.1
20260906004013 26 117 8.0 20.9 0.00 0.00 0.00 77 1013.0
20260906003506 26 117 9.7 19.3 0.00 0.00 0.00 76 1013.1
20260906003022 26 47 8.0 20.9 0.00 0.00 0.00 76 1013.2
20260906002507 27 65 8.0 20.9 0.00 0.00 0.00 75 1013.1
20260906002013 27 134 14.5 20.9 0.00 0.00 0.00 75 1013.0
20260906001519 27 99 9.7 17.7 0.00 0.00 0.00 75 1013.0
20260906001011 27 119 6.4 20.9 0.00 0.00 0.00 74 1013.1
20260906000512 27 85 8.0 20.9 0.00 0.00 0.00 73 1013.1
20260906000026 28 75 11.3 22.5 0.00 0.00 0.00 73 1012.9
20260905235516 28 131 11.3 22.5 0.00 0.00 0.00 72 1012.8
20260905235018 28 110 11.3 22.5 0.00 0.00 0.00 72 1012.7
20260905234523 28 160 12.9 24.1 0.00 0.00 0.00 71 1012.7
20260905234004 28 75 14.5 24.1 0.00 0.00 0.00 71 1012.6
20260905233505 28 111 9.7 19.3 0.00 0.00 0.00 71 1012.6
20260905233013 29 115 8.0 17.7 0.00 0.00 0.00 70 1012.7
20260905232510 29 110 11.3 20.9 0.00 0.00 0.00 70 1012.6
20260905232007 29 100 12.9 29.0 0.00 0.00 0.00 69 1012.6
20260905231516 29 72 12.9 29.0 0.00 0.00 0.00 69 1012.7
20260905231009 30 111 11.3 17.7 0.00 0.00 0.00 69 1012.6
20260905230517 30 98 9.7 19.3 0.00 0.00 0.00 69 1012.6
20260905230026 30 120 8.0 25.7 0.00 0.00 0.00 69 1012.6
20260905225514 30 138 11.3 25.7 0.00 0.00 0.00 68 1012.5
20260905225013 30 102 12.9 22.5 0.00 0.00 0.00 68 1012.4
20260905224526 30 117 9.7 24.1 0.00 0.00 0.00 68 1012.4
20260905224013 30 131 12.9 29.0 0.00 0.00 0.00 67 1012.4
20260905223506 30 68 14.5 29.0 0.00 0.00 0.00 68 1012.2
20260905223027 30 97 14.5 27.4 0.00 0.00 0.00 68 1012.1
20260905222506 31 102 12.9 29.0 0.00 0.00 0.00 67 1012.0
20260905222009 31 126 19.3 29.0 0.00 0.00 0.00 67 1012.0
20260905221533 31 77 19.3 30.6 0.00 0.00 0.00 66 1011.9
20260905221008 31 98 12.9 30.6 0.00 0.00 0.00 67 1011.9
20260905220510 31 68 9.7 29.0 0.00 0.00 0.00 68 1011.9
20260905220020 31 83 16.1 29.0 0.00 0.00 0.00 67 1011.8
20260905215517 31 101 16.1 29.0 0.00 0.00 0.00 66 1011.8
20260905215015 32 103 14.5 27.4 0.00 0.00 0.00 67 1011.8
20260905214523 32 94 6.4 24.1 0.00 0.00 0.00 68 1011.8
20260905214015 32 122 16.1 24.1 0.00 0.00 0.00 68 1011.8
20260905213512 32 86 11.3 33.8 0.00 0.00 0.00 68 1011.8
20260905213023 32 107 19.3 33.8 0.00 0.00 0.00 67 1011.7
20260905212504 32 113 16.1 32.2 0.00 0.00 0.00 67 1011.7
20260905212003 32 126 12.9 27.4 0.00 0.00 0.00 67 1011.5
20260905211522 32 133 14.5 27.4 0.00 0.00 0.00 67 1011.5
20260905211006 32 94 11.3 27.4 0.00 0.00 0.00 67 1011.5
20260905210510 32 68 12.9 22.5 0.00 0.00 0.00 67 1011.6
20260905210016 32 91 11.3 17.7 0.00 0.00 0.00 66 1011.6
20260905205511 32 46 9.7 25.7 0.00 0.00 0.00 67 1011.7
20260905205010 32 92 8.0 25.7 0.00 0.00 0.00 66 1011.8
20260905204523 33 77 11.3 20.9 0.00 0.00 0.00 65 1011.8
20260905204011 33 71 9.7 25.7 0.00 0.00 0.00 64 1011.8
20260905203515 33 37 16.1 25.7 0.00 0.00 0.00 64 1011.8
20260905203030 33 323 12.9 22.5 0.00 0.00 0.00 63 1011.8
20260905202514 33 4 6.4 17.7 0.00 0.00 0.00 63 1011.8
20260905202013 33 26 9.7 19.3 0.00 0.00 0.00 62 1011.8
20260905201506 33 83 12.9 25.7 0.00 0.00 0.00 63 1011.8
20260905201007 33 67 14.5 29.0 0.00 0.00 0.00 62 1011.7
20260905200506 33 117 16.1 29.0 0.00 0.00 0.00 63 1011.7
20260905200015 33 359 12.9 20.9 0.00 0.00 0.00 63 1011.8
20260905195512 33 56 9.7 17.7 0.00 0.00 0.00 63 1011.8
20260905195009 33 98 4.8 19.3 0.00 0.00 0.00 64 1011.8
20260905194521 33 173 9.7 19.3 0.00 0.00 0.00 62 1012.0
20260905194012 33 96 8.0 27.4 0.00 0.00 0.00 64 1012.0
20260905193514 33 23 8.0 27.4 0.00 0.00 0.00 64 1012.1
20260905193023 33 55 11.3 20.9 0.00 0.00 0.00 63 1012.2
20260905192514 33 25 9.7 24.1 0.00 0.00 0.00 65 1012.3
20260905192013 32 319 11.3 24.1 0.00 0.00 0.00 65 1012.3
20260905191526 33 295 6.4 19.3 0.00 0.00 0.00 65 1012.3
20260905191011 32 359 6.4 19.3 0.00 0.00 0.00 66 1012.3
20260905190504 32 310 9.7 17.7 0.00 0.00 0.00 65 1012.3
20260905190010 32 346 6.4 12.9 0.00 0.00 0.00 66 1012.3
20260905185506 32 302 6.4 14.5 0.00 0.00 0.00 66 1012.4
20260905185006 32 326 8.0 17.7 0.00 0.00 0.00 66 1012.5
20260905184513 32 340 4.8 17.7 0.00 0.00 0.00 67 1012.5
20260905184010 32 23 8.0 14.5 0.00 0.00 0.00 67 1012.5
20260905183509 32 328 9.7 17.7 0.00 0.00 0.00 66 1012.6
20260905183018 32 282 8.0 17.7 0.00 0.00 0.00 67 1012.7
20260905182514 31 345 8.0 14.5 0.00 0.00 0.00 67 1012.7
20260905182011 32 287 9.7 14.5 0.00 0.00 0.00 67 1012.9
20260905181523 32 312 11.3 14.5 0.00 0.00 0.00 66 1012.9
20260905181011 32 20 6.4 16.1 0.00 0.00 0.00 67 1013.0
20260905180515 31 229 4.8 16.1 0.00 0.00 0.00 67 1013.0
20260905180025 31 320 4.8 19.3 0.00 0.00 0.00 67 1013.1
20260905175505 31 89 6.4 19.3 0.00 0.00 0.00 67 1013.1
20260905175007 31 285 6.4 16.1 0.00 0.00 0.00 67 1013.1
20260905174508 31 296 8.0 14.5 0.00 0.00 0.00 66 1013.2
20260905174008 31 270 8.0 12.9 0.00 0.00 0.00 67 1013.3
20260905173510 31 314 6.4 12.9 0.00 0.00 0.00 69 1013.3
20260905173014 31 305 9.7 12.9 0.00 0.00 0.00 67 1013.4
20260905172512 31 328 6.4 12.9 0.00 0.00 0.00 68 1013.5
20260905172012 31 313 6.4 12.9 0.00 0.00 0.00 67 1013.6
20260905171538 31 292 4.8 9.7 0.00 0.00 0.00 69 1013.6
20260905171018 30 234 4.8 12.9 0.00 0.00 0.00 69 1013.7
20260905170514 30 302 6.4 12.9 0.00 0.00 0.00 69 1013.8
20260905170028 30 230 9.7 12.9 0.00 0.00 0.00 69 1013.8
20260905165512 30 276 9.7 12.9 0.00 0.00 0.00 69 1013.9
20260905165003 30 309 9.7 12.9 0.00 0.00 0.00 69 1013.9
20260905164506 30 311 8.0 12.9 0.00 0.00 0.00 70 1013.9
20260905164008 30 257 8.0 12.9 0.00 0.00 0.00 69 1014.0
20260905163506 30 247 8.0 14.5 0.00 0.00 0.00 70 1013.9
20260905163011 29 324 6.4 14.5 0.00 0.00 0.00 70 1013.9
20260905162510 29 314 8.0 14.5 0.00 0.00 0.00 69 1014.0
20260905162013 29 7 8.0 16.1 0.00 0.00 0.00 70 1013.9
20260905161520 29 290 9.7 16.1 0.00 0.00 0.00 70 1013.9
20260905161015 28 323 8.0 14.5 0.00 0.00 0.00 71 1014.0
20260905160515 28 334 8.0 14.5 0.00 0.00 0.00 71 1013.9
20260905160036 28 345 9.7 14.5 0.00 0.00 0.00 72 1013.8
20260905155511 28 13 9.7 17.7 0.00 0.00 0.00 71 1013.9
20260905155011 28 318 11.3 17.7 0.00 0.00 0.00 71 1013.9
20260905154544 28 288 12.9 17.7 0.00 0.00 0.00 71 1014.0
20260905154003 28 297 9.7 19.3 0.00 0.00 0.00 71 1014.0
20260905153510 28 292 12.9 19.3 0.00 0.00 0.00 70 1014.1
20260905153011 28 295 12.9 19.3 0.00 0.00 0.00 70 1014.1
20260905152508 28 78 6.4 17.7 0.00 0.00 0.00 72 1014.0
20260905152007 28 310 12.9 17.7 0.00 0.00 0.00 71 1013.9
20260905151516 28 309 6.4 17.7 0.00 0.00 0.00 70 1013.9
20260905151007 28 238 14.5 22.5 0.00 0.00 0.00 71 1013.9
20260905150513 28 298 11.3 24.1 0.00 0.00 0.00 71 1014.0
20260905150025 27 277 14.5 24.1 0.00 0.00 0.00 72 1013.9
20260905145514 27 256 11.3 20.9 0.00 0.00 0.00 73 1014.0
20260905145011 27 234 9.7 20.9 0.00 0.00 0.00 73 1014.0
20260905144528 27 256 14.5 20.9 0.00 0.00 0.00 74 1014.1
20260905144014 27 296 11.3 19.3 0.00 0.00 0.00 74 1014.2
20260905143510 27 262 11.3 19.3 0.00 0.00 0.00 74 1014.3
20260905143006 27 256 6.4 16.1 0.00 0.00 0.00 74 1014.2
20260905142507 27 229 9.7 17.7 0.00 0.00 0.00 74 1014.2
20260905142008 27 238 12.9 17.7 0.00 0.00 0.00 74 1014.1
20260905141512 27 300 14.5 17.7 0.00 0.00 0.00 74 1014.0
20260905141010 27 226 12.9 17.7 0.00 0.00 0.00 75 1013.8
20260905140507 27 274 8.0 17.7 0.00 0.00 0.00 76 1013.7
20260905140016 27 308 6.4 16.1 0.00 0.00 0.00 77 1013.7
20260905135509 26 307 6.4 17.7 0.00 0.00 0.00 77 1013.8
20260905135013 26 260 8.0 19.3 0.00 0.00 0.00 77 1013.8
20260905134523 26 236 12.9 19.3 0.00 0.00 0.00 77 1013.6
20260905134013 26 231 11.3 17.7 0.00 0.00 0.00 77 1013.7
20260905133515 26 202 9.7 24.1 0.00 0.00 0.00 78 1013.9
20260905133020 26 195 12.9 24.1 0.00 0.00 0.00 79 1013.9
20260905132504 26 219 9.7 24.1 0.00 0.00 0.00 80 1013.9
20260905132008 26 216 11.3 22.5 0.00 0.00 0.00 80 1013.9
20260905131508 26 327 12.9 22.5 0.00 0.00 0.00 80 1013.8
20260905131008 25 285 8.0 24.1 0.00 0.00 0.00 81 1013.9
20260905130509 25 202 16.1 24.1 0.00 0.00 0.00 80 1013.8
20260905130017 25 224 11.3 24.1 0.00 0.00 0.00 80 1013.9
20260905125512 25 214 9.7 27.4 0.00 0.00 0.00 80 1013.9
20260905125012 25 215 11.3 27.4 0.00 0.00 0.00 80 1013.9
20260905124530 26 243 16.1 27.4 0.00 0.00 0.00 79 1013.9
20260905124011 26 230 14.5 20.9 0.00 0.00 0.00 83 1013.8
20260905123512 26 240 8.0 17.7 0.00 0.00 0.00 84 1013.7
20260905123023 26 198 6.4 12.9 0.00 0.00 0.00 84 1013.7
20260905122518 26 188 6.4 12.9 0.00 0.00 0.00 85 1013.5
20260905122011 26 163 4.8 11.3 0.00 0.00 0.00 87 1013.5
20260905121506 25 198 4.8 11.3 0.00 0.00 0.00 88 1013.4
20260905121004 25 164 6.4 8.0 0.00 0.00 0.00 90 1013.4
20260905120504 25 94 0.0 0.0 0.00 0.00 0.00 92 1013.2
20260905120020 24 66 0.0 1.6 0.00 0.00 0.00 92 1013.1
20260905115509 24 66 0.0 1.6 0.00 0.00 0.00 92 1013.0
20260905115010 24 66 0.0 1.6 0.00 0.00 0.00 92 1013.0
20260905114516 24 66 0.0 1.6 0.00 0.00 0.00 92 1013.0
20260905114009 24 40 0.0 3.2 0.00 0.00 0.00 92 1013.0
20260905113513 24 19 1.6 3.2 0.00 0.00 0.00 92 1013.1
20260905113021 24 18 1.6 4.8 0.00 0.00 0.00 92 1013.1
20260905112512 24 336 1.6 4.8 0.00 0.00 0.00 92 1013.0
20260905112013 24 329 3.2 4.8 0.00 0.00 0.00 92 1012.9
20260905111524 24 328 1.6 4.8 0.00 0.00 0.00 91 1012.9
20260905111012 24 316 3.2 6.4 0.00 0.00 0.00 91 1012.9
20260905110504 24 311 4.8 6.4 0.00 0.00 0.00 91 1012.8
20260905110007 24 310 4.8 6.4 0.00 0.00 0.00 91 1012.8
20260905105504 24 295 4.8 6.4 0.00 0.00 0.00 91 1012.8
20260905105017 24 292 3.2 6.4 0.00 0.00 0.00 91 1012.8
20260905104522 24 309 3.2 6.4 0.00 0.00 0.00 91 1012.8
20260905104007 24 311 4.8 6.4 0.00 0.00 0.00 91 1012.8